Location: Unspecified
(44.4377°N, 88.0525°W)
Time: 04:40:49
(UTC-06:00)

CZ-3 Stage 3 - Pass Details

Date: 04 February 2021
Orbit: 398 x 34787 km, 30.8° (Epoch: 27 February)

Event Time Altitude Azimuth Distance (km) Brightness Sun altitude
Rises 23:58:40 0° 289° (WNW) 14,036 9.1 -61.7°
Reaches altitude 10° 00:13:11 10° 281° (W) 16,492 9.2 -61.7°
Maximum altitude 01:11:00 20° 267° (W) 25,955 9.9 -58.6°
Drops below altitude 10° 03:08:08 10° 264° (W) 37,756 10.6 -42.5°
Sets 04:21:47 0° 267° (W) 40,669 10.7 -29.7°
